Regional Weather Roundup
Issued by NWS Goodland, KS

Home | Current Version | Previous Version | Graphics & Text | Print | Product List | Glossary On
Versions: 1 2 3 4 5 6 7 8 9 10 11 12 13 14 15 16 17 18 19 20 21 22 23 24 25 26 27 28 29 30 31 32 33 34 35 36 37 38 39 40 41 42 43 44 45 46 47 48 49 50
000
ASUS43 KGLD 252208
RWRGLD

GOODLAND FORECAST AREA HOURLY WEATHER ROUNDUP
NATIONAL WEATHER SERVICE GOODLAND KS
300 PM MST TUE NOV 25 2014

...OFFICIAL OBSERVATIONS...

CITY           SKY/WX    TMP DP  RH WIND       PRES   REMARKS
GOODLAND KS    PTSUNNY   49   9  19 SW13      29.87F
HILL CITY KS   CLOUDY    51  14  22 SW17G24   29.90F
IMPERIAL NEB   CLOUDY    50  17  27 W13       29.82S
MCCOOK NEB     CLOUDY    49  20  31 W8        29.84F
AKRON CO       CLOUDY    46  13  26 NW10      29.85S
BURLINGTON CO  PTSUNNY   48   9  20 SW12      29.86F
LIMON CO       PTSUNNY   48  15  26 NW20      29.87F
$$

...UNOFFICIAL OBSERVATIONS...

CITY           SKY/WX    TMP DP  RH WIND       PRES   REMARKS
COLBY KS       PTSUNNY   50  25  37 W12G22    29.87F
GOVE KS          N/A     52  32  46 MISG        N/A
NORTON KS      CLOUDY    48   9  20 SW13G22   29.86F
SHARON SPRINGS   N/A     49  14  24 W12         N/A
TRIBUNE KS     MOSUNNY   50  23  34 SW10      29.92S
TRENTON NEB      N/A     49  32  52 W6          N/A
YUMA CO          N/A     49  14  24 NW20        N/A
$$


USA.gov is the U.S. government's official web portal to all federal, state and local government web resources and services.